• In Belgien
  • Länderverzeichnis
  • Für 7 Tage
  • Wassertemperatur
  • Satellitenkarten
  • Wetterkarte
  • Widgets
  • user-avatar
    Anmelden

    Stündliche Wetter Podewsie

    Heute, 21 Juli, Samstag

    Zeit Temperatur Niederschläge Wind Luftdruck Luftfeuchtigkeit
    00:00 +18°C° 0 mm 1 m/S 748 mmHg 73%
    01:00 +18°C° 0 mm 1 m/S 748 mmHg 74%
    02:00 +18°C° 0 mm 1 m/S 748 mmHg 75%
    03:00 +16°C° 0 mm 1 m/S 747 mmHg 77%
    04:00 +16°C° 0 mm 1 m/S 747 mmHg 78%
    05:00 +19°C° 0 mm 1 m/S 747 mmHg 73%
    06:00 +20°C° 0 mm 1 m/S 748 mmHg 68%
    07:00 +22°C° 0 mm 1 m/S 748 mmHg 64%
    08:00 +24°C° 0 mm 1 m/S 748 mmHg 58%
    09:00 +25°C° 0 mm 1 m/S 748 mmHg 53%
    10:00 +27°C° 0 mm 1 m/S 747 mmHg 48%
    11:00 +28°C° 0 mm 1 m/S 747 mmHg 45%
    12:00 +28°C° 0 mm 1 m/S 747 mmHg 43%
    13:00 +29°C° 0 mm 1 m/S 747 mmHg 40%
    14:00 +29°C° 0 mm 1 m/S 746 mmHg 40%
    15:00 +29°C° 0 mm 1 m/S 746 mmHg 40%
    16:00 +29°C° 0 mm 1 m/S 746 mmHg 39%
    17:00 +28°C° 0 mm 1 m/S 746 mmHg 45%
    18:00 +26°C° 0 mm 1 m/S 746 mmHg 52%
    19:00 +25°C° 0 mm 2 m/S 746 mmHg 58%
    20:00 +23°C° 0 mm 1 m/S 746 mmHg 61%
    21:00 +22°C° 0 mm 1 m/S 746 mmHg 64%
    22:00 +20°C° 0 mm 1 m/S 746 mmHg 68%
    23:00 +20°C° 0 mm 1 m/S 746 mmHg 70%

    Morgen, 22 Juli, Sonntag

    Zeit Temperatur Niederschläge Wind Luftdruck Luftfeuchtigkeit
    00:00 +19°C° 0 mm 1 m/S 747 mmHg 72%
    01:00 +19°C° 0 mm 1 m/S 747 mmHg 74%
    02:00 +18°C° 0 mm 1 m/S 746 mmHg 75%
    03:00 +18°C° 0 mm 1 m/S 746 mmHg 77%
    04:00 +18°C° 0 mm 1 m/S 746 mmHg 78%
    05:00 +19°C° 0 mm 1 m/S 746 mmHg 74%
    06:00 +21°C° 0 mm 1 m/S 747 mmHg 70%
    07:00 +22°C° 0 mm 1 m/S 747 mmHg 65%
    08:00 +24°C° 0 mm 1 m/S 747 mmHg 61%
    09:00 +25°C° 0 mm 1 m/S 747 mmHg 56%
    10:00 +27°C° 0 mm 2 m/S 747 mmHg 52%
    11:00 +27°C° 0 mm 2 m/S 746 mmHg 49%
    12:00 +28°C° 0 mm 2 m/S 746 mmHg 47%
    13:00 +29°C° 0 mm 2 m/S 746 mmHg 44%
    14:00 +28°C° 0 mm 2 m/S 746 mmHg 44%
    15:00 +28°C° 0 mm 2 m/S 746 mmHg 45%
    16:00 +28°C° 0 mm 2 m/S 745 mmHg 45%
    17:00 +27°C° 0 mm 2 m/S 746 mmHg 50%
    18:00 +26°C° 0 mm 2 m/S 746 mmHg 56%
    19:00 +25°C° 0 mm 2 m/S 746 mmHg 61%
    20:00 +23°C° 0 mm 2 m/S 746 mmHg 64%
    21:00 +22°C° 0 mm 1 m/S 746 mmHg 67%
    22:00 +20°C° 0 mm 1 m/S 746 mmHg 70%
    23:00 +20°C° 0 mm 1 m/S 746 mmHg 71%

    übermorgen, 23 Juli, Montag

    Zeit Temperatur Niederschläge Wind Luftdruck Luftfeuchtigkeit
    00:00 +19°C° 0 mm 1 m/S 746 mmHg 73%
    01:00 +19°C° 0 mm 1 m/S 746 mmHg 75%
    02:00 +19°C° 0 mm 1 m/S 746 mmHg 76%
    03:00 +18°C° 0 mm 1 m/S 746 mmHg 78%
    04:00 +18°C° 0 mm 1 m/S 746 mmHg 80%
    05:00 +19°C° 0 mm 1 m/S 746 mmHg 76%
    06:00 +21°C° 0 mm 1 m/S 747 mmHg 72%
    07:00 +21°C° 0 mm 2 m/S 747 mmHg 69%
    08:00 +24°C° 0 mm 2 m/S 747 mmHg 63%
    09:00 +26°C° 0 mm 2 m/S 747 mmHg 58%
    10:00 +27°C° 0 mm 3 m/S 747 mmHg 53%
    11:00 +28°C° 0 mm 3 m/S 747 mmHg 51%
    12:00 +29°C° 0 mm 3 m/S 747 mmHg 48%
    13:00 +29°C° 0 mm 3 m/S 747 mmHg 45%
    14:00 +29°C° 0 mm 3 m/S 747 mmHg 47%
    15:00 +29°C° 0 mm 3 m/S 747 mmHg 49%
    16:00 +29°C° 0 mm 4 m/S 747 mmHg 50%
    17:00 +28°C° 0,2 mm 3 m/S 747 mmHg 56%
    18:00 +26°C° 0,2 mm 2 m/S 747 mmHg 62%
    19:00 +25°C° 0,2 mm 2 m/S 747 mmHg 68%
    20:00 +24°C° 0,4 mm 1 m/S 747 mmHg 73%
    21:00 +22°C° 0,4 mm 1 m/S 748 mmHg 79%
    22:00 +21°C° 0,4 mm 1 m/S 748 mmHg 84%
    23:00 +21°C° 0,1 mm 1 m/S 748 mmHg 85%

    24 Juli, Dienstag

    Zeit Temperatur Niederschläge Wind Luftdruck Luftfeuchtigkeit
    00:00 +20°C° 0,1 mm 1 m/S 748 mmHg 87%
    01:00 +19°C° 0,1 mm 2 m/S 748 mmHg 88%
    02:00 +18°C° 0 mm 2 m/S 748 mmHg 90%
    03:00 +18°C° 0 mm 2 m/S 748 mmHg 92%
    04:00 +17°C° 0 mm 2 m/S 748 mmHg 93%
    05:00 +18°C° 0 mm 2 m/S 748 mmHg 90%
    06:00 +19°C° 0 mm 2 m/S 749 mmHg 86%
    07:00 +20°C° 0 mm 2 m/S 749 mmHg 82%
    08:00 +22°C° 0,1 mm 3 m/S 749 mmHg 75%
    09:00 +24°C° 0,1 mm 3 m/S 748 mmHg 69%
    10:00 +25°C° 0,1 mm 4 m/S 748 mmHg 62%
    11:00 +26°C° 0 mm 4 m/S 748 mmHg 59%
    12:00 +27°C° 0 mm 4 m/S 748 mmHg 56%
    13:00 +27°C° 0 mm 4 m/S 748 mmHg 54%
    14:00 +27°C° 0 mm 4 m/S 747 mmHg 52%
    15:00 +27°C° 0 mm 4 m/S 747 mmHg 51%
    16:00 +28°C° 0 mm 4 m/S 747 mmHg 50%
    17:00 +27°C° 0 mm 3 m/S 747 mmHg 55%
    18:00 +25°C° 0 mm 3 m/S 747 mmHg 60%
    19:00 +24°C° 0 mm 2 m/S 747 mmHg 64%
    20:00 +23°C° 0 mm 2 m/S 747 mmHg 68%
    21:00 +22°C° 0 mm 1 m/S 748 mmHg 71%
    22:00 +21°C° 0 mm 1 m/S 748 mmHg 74%
    23:00 +20°C° 0 mm 1 m/S 748 mmHg 76%

    25 Juli, Mittwoch

    Zeit Temperatur Niederschläge Wind Luftdruck Luftfeuchtigkeit
    00:00 +20°C° 0 mm 1 m/S 748 mmHg 78%
    01:00 +19°C° 0 mm 1 m/S 748 mmHg 79%
    02:00 +19°C° 0 mm 1 m/S 748 mmHg 81%
    03:00 +19°C° 0 mm 1 m/S 748 mmHg 83%
    04:00 +18°C° 0 mm 1 m/S 748 mmHg 85%
    05:00 +20°C° 0 mm 1 m/S 748 mmHg 80%
    06:00 +21°C° 0 mm 1 m/S 748 mmHg 75%
    07:00 +22°C° 0 mm 1 m/S 749 mmHg 70%
    08:00 +24°C° 0 mm 2 m/S 749 mmHg 65%
    09:00 +25°C° 0 mm 2 m/S 749 mmHg 59%
    10:00 +27°C° 0 mm 3 m/S 749 mmHg 54%
    11:00 +27°C° 0 mm 3 m/S 748 mmHg 51%
    12:00 +28°C° 0 mm 3 m/S 748 mmHg 48%
    13:00 +29°C° 0 mm 3 m/S 748 mmHg 45%
    14:00 +29°C° 0 mm 3 m/S 748 mmHg 46%
    15:00 +29°C° 0 mm 3 m/S 748 mmHg 46%
    16:00 +29°C° 0 mm 3 m/S 747 mmHg 47%
    17:00 +28°C° 0,1 mm 3 m/S 747 mmHg 53%
    18:00 +27°C° 0,1 mm 2 m/S 747 mmHg 59%
    19:00 +26°C° 0,1 mm 2 m/S 747 mmHg 65%
    20:00 +25°C° 0,1 mm 2 m/S 747 mmHg 69%
    21:00 +23°C° 0,1 mm 1 m/S 748 mmHg 73%
    22:00 +22°C° 0,1 mm 1 m/S 748 mmHg 77%
    23:00 +22°C° 0,1 mm 1 m/S 748 mmHg 79%

    26 Juli, Donnerstag

    Zeit Temperatur Niederschläge Wind Luftdruck Luftfeuchtigkeit
    00:00 +21°C° 0,1 mm 1 m/S 748 mmHg 81%
    01:00 +21°C° 0,1 mm 1 m/S 748 mmHg 83%
    02:00 +20°C° 0 mm 1 m/S 748 mmHg 84%
    03:00 +20°C° 0 mm 1 m/S 748 mmHg 85%
    04:00 +20°C° 0 mm 1 m/S 748 mmHg 86%
    05:00 +21°C° 0 mm 1 m/S 748 mmHg 81%
    06:00 +22°C° 0 mm 1 m/S 749 mmHg 76%
    07:00 +24°C° 0 mm 1 m/S 749 mmHg 71%
    08:00 +25°C° 0 mm 1 m/S 749 mmHg 65%
    09:00 +27°C° 0 mm 2 m/S 749 mmHg 58%
    10:00 +28°C° 0 mm 2 m/S 749 mmHg 52%
    11:00 +29°C° 0 mm 2 m/S 749 mmHg 49%
    12:00 +29°C° 0 mm 2 m/S 749 mmHg 47%
    13:00 +30°C° 0 mm 3 m/S 748 mmHg 45%
    14:00 +30°C° 0 mm 2 m/S 748 mmHg 45%
    15:00 +30°C° 0 mm 2 m/S 748 mmHg 44%
    16:00 +31°C° 0 mm 2 m/S 748 mmHg 44%
    17:00 +29°C° 0 mm 2 m/S 748 mmHg 49%
    18:00 +28°C° 0 mm 2 m/S 748 mmHg 54%
    19:00 +27°C° 0 mm 1 m/S 748 mmHg 59%
    20:00 +26°C° 0 mm 1 m/S 749 mmHg 61%
    21:00 +24°C° 0 mm 1 m/S 749 mmHg 64%
    22:00 +23°C° 0 mm 1 m/S 749 mmHg 66%
    23:00 +23°C° 0 mm 1 m/S 749 mmHg 67%
    Mehr zeigen